Regional Weather Roundup
Issued by NWS

Home | Current Version | Previous Version | Graphics & Text | Print | Product List | Glossary On
Versions: 1 2 3 4 5 6 7 8 9 10 11 12 13 14 15 16 17 18 19 20 21 22 23 24 25 26 27 28 29 30 31 32 33 34 35 36 37 38 39 40 41 42 43 44 45 46 47 48 49 50
000
ASUS44 KMEG 242310
RWRTN
TENNESSEE HOURLY STATE WEATHER ROUNDUP
NATIONAL WEATHER SERVICE MEMPHIS TN
600 PM CDT WED AUG 24 2016

TNZ002-004-019-021-049-052-054-088>092-250000-
WEST TENNESSEE

CITY           SKY/WX    TMP DP  RH WIND       PRES   REMARKS
MEMPHIS INTL   MOSUNNY   93  74  53 S6        30.08F HX 103
NWS MEMPHIS      N/A     96 N/A N/A MISG        N/A
JACKSON        SUNNY     91  75  59 S5        30.09F HX 101
DYERSBURG      SUNNY    N/A N/A N/A MISG        N/A
UNION CITY     SUNNY     90  75  62 S7        30.07S HX 100
PARIS          SUNNY     88  75  66 SW6       30.10F HX  97
LEXINGTON      SUNNY     90  73  58 SW7       30.10F HX  98
$$

TNZ008-025-027-028-033-062-065-066-250000-
NORTH MIDDLE TENNESSEE

CITY           SKY/WX    TMP DP  RH WIND       PRES   REMARKS
NASHVILLE      PTSUNNY   90  70  51 SW6       30.12S HX  95
CLARKSVILLE    MOSUNNY   88  72  58 SW9       30.10S HX  94
SMYRNA         MOSUNNY   90  72  55 MISG      30.14F HX  96
COOKEVILLE     SUNNY     86  75  70 CALM      30.15F HX  95
CROSSVILLE     MOSUNNY   82  71  69 VRB3      30.22F
$$

TNZ061-075-076-078-094-096-097-250000-
SOUTH MIDDLE TENNESSEE

CITY           SKY/WX    TMP DP  RH WIND       PRES   REMARKS
FAYETTEVILLE   SUNNY     90  70  51 CALM      30.15F HX  95
TULLAHOMA      SUNNY     88  70  55 S5        30.17F HX  92
WINCHESTER     SUNNY     90  70  51 CALM      30.16F HX  95
MCMINNVILLE    SUNNY     90  73  58 SW5       30.16F HX  98
COLUMBIA       SUNNY     91  75  59 SW7       30.11F HX 102
SHELBYVILLE    SUNNY     91  73  55 SW7       30.15S HX 100
$$

TNZ017-018-042-046-047-250000-
NORTHEAST TENNESSEE

CITY           SKY/WX    TMP DP  RH WIND       PRES   REMARKS
TRI CITIES     PTSUNNY   82  66  58 CALM      30.21F
ELIZABETHTON   SUNNY     82  70  65 CALM      30.21S
$$

TNZ012-013-036-069-073-074-250000-
CENTRAL EAST TENNESSEE

CITY           SKY/WX    TMP DP  RH WIND       PRES   REMARKS
KNOXVILLE      MOSUNNY   87  69  54 SW7       30.16S HX  91
GATLINBURG       N/A     88  68  51 W5        30.16S HX  91
MORRISTOWN     PTSUNNY   86  70  58 S5        30.18S HX  90
$$

TNZ083-085-099-250000-
SOUTHEAST TENNESSEE

CITY           SKY/WX    TMP DP  RH WIND       PRES   REMARKS
CHATTANOOGA    PTSUNNY   90  68  48 S3        30.15F HX  94
$$

SKY/WX REPORTED AS FAIR MEANS FEW OR NO CLOUDS BELOW
12 THOUSAND FEET.




USA.gov is the U.S. government's official web portal to all federal, state and local government web resources and services.